Location: Agadir-Ikarkaouin
(31.1503°N, 9.0246°W)
Time: 03:54:45
(UTC+00:00)

Cosmos 1674 Rocket - Pass Details

Date: 18 September 2020
Orbit: 603 x 630 km, 82.5° (Epoch: 23 October)

Event Time Altitude Azimuth Distance (km) Brightness Sun altitude
Rises 19:09:36 0° 348° (NNW) 2,922 7.3 -7.7°
Reaches altitude 10° 19:11:53 10° 345° (NNW) 2,012 6.5 -8.2°
Maximum altitude 19:16:15 57° 267° (W) 742 4.4 -9.1°
Drops below altitude 10° 19:20:35 10° 189° (S) 1,995 6.2 -10.0°
Sets 19:22:50 0° 185° (S) 2,895 7.0 -10.5°
